Stations météo

réclame
Mon MeteoGroup
Angermünde, Allemagne (10291): Température de l'air & dewpoint: 11.02.2019 15:00:00 - 17.02.2019 15:00:00 (CET)Angermünde, Allemagne (10291): Température de l'air 5cm & Température de l'air -5cm: 11.02.2019 15:00:00 - 17.02.2019 15:00:00 (CET)Angermünde, Allemagne (10291): Température de l'air -20cm & Température de l'air -100cm: 11.02.2019 15:00:00 - 17.02.2019 15:00:00 (CET)Angermünde, Allemagne (10291): Vitesse du vent & gusts: 11.02.2019 15:00:00 - 17.02.2019 15:00:00 (CET)Angermünde, Allemagne (10291): Direction du vent: 11.02.2019 15:00:00 - 17.02.2019 15:00:00 (CET)Angermünde, Allemagne (10291): reduced air pressure: 11.02.2019 15:00:00 - 17.02.2019 15:00:00 (CET)Angermünde, Allemagne (10291): visibility: 11.02.2019 15:00:00 - 17.02.2019 15:00:00 (CET)Angermünde, Allemagne (10291): Ensoleillement: 11.02.2019 15:00:00 - 17.02.2019 15:00:00 (CET)Angermünde, Allemagne (10291): Quantités de précipitations: 11.02.2019 15:00:00 - 17.02.2019 15:00:00 (CET)
Date & Time tt [°C] td [°C] tt 5cm [°C] tt -5cm [°C] tt -20cm [°C] tt -100cm [°C] ff [km/h] ff [knt] fx [km/h] fx [knt] dd ppp [hPa] vv [km] sd [min] rr [mm]
17.02.2019 15:00:00 11,9 4,4 12,9 8,2 4,1 4,2 9 5 13 7 SE 1023,9 10 60 0,0
17.02.2019 14:00:00 12,1 4,4 13,4 7,9 3,5 4,2 7 4 13 7 S 1024,3 9 60 0,0
17.02.2019 13:00:00 11,1 4,2 12,9 6,7 2,9 4,2 3 2 7 4 NE 1024,9 10 34 0,0
17.02.2019 12:00:00 10,5 4,5 11,6 5,4 2,5 4,2 4 2 8 4 W 1025,3 11 16 0,0
17.02.2019 11:00:00 7,7 2,1 8,3 3,3 2,2 4,2 2 1 9 5 SSW 1025,7 15 2 0,0
17.02.2019 10:00:00 5,2 0,9 5,4 1,2 2,2 4,2 5 3 10 5 SSW 1025,8 16 0 0,0
17.02.2019 09:00:00 3,3 -0,1 2,8 0,9 2,3 4,2 5 3 8 4 S 1025,8 15 0 0,0
17.02.2019 08:00:00 2,2 -0,7 1,7 0,9 2,3 4,2 5 3 10 5 SSW 1025,6 15 0 0,0
17.02.2019 07:00:00 1,5 -1,3 1,1 0,9 2,4 4,2 5 3 9 5 SSW 1025,2 17 0 0,0
17.02.2019 06:00:00 1,7 -1,6 -1,4 0,9 2,5 4,2 4 2 12 6 WSW 1025,0 17 0 0,0
17.02.2019 05:00:00 3,4 -1,0 -1,5 1,0 2,5 4,2 8 4 13 7 W 1024,9 20 0 0,0
17.02.2019 04:00:00 3,0 -1,2 -0,9 1,0 2,6 4,2 11 6 14 8 W 1024,6 23 0 0,0
17.02.2019 03:00:00 4,5 -0,9 -0,2 1,1 2,8 4,2 8 4 11 6 W 1024,7 28 0 0,0
17.02.2019 02:00:00 4,8 -0,8 -1,0 1,1 2,9 4,2 8 4 11 6 W 1024,5 31 0 0,0
17.02.2019 01:00:00 6,8 -0,6 0,3 1,0 3,1 4,2 6 4 13 7 SW 1024,4 35 0 0,0
17.02.2019 00:00:00 6,4 -0,8 1,4 1,3 3,3 4,2 10 6 14 8 WSW 1024,4 42 0 0,0
16.02.2019 23:00:00 7,8 -0,8 1,3 1,8 3,5 4,2 7 4 17 9 W 1024,4 45 0 0,0
16.02.2019 22:00:00 8,2 -1,1 3,7 2,1 3,8 4,2 10 5 17 9 W 1024,0 53 0 0,0
16.02.2019 21:00:00 7,9 -1,6 1,9 2,4 4,0 4,2 5 3 11 6 SW 1024,1 31 0 0,0
16.02.2019 20:00:00 8,5 -1,6 2,8 3,1 4,2 4,2 9 5 16 8 SSW 1024,1 35 0 0,0
16.02.2019 19:00:00 9,2 -1,1 3,7 3,9 4,4 4,2 10 5 13 7 S 1024,0 40 0 0,0
16.02.2019 18:00:00 10,8 -1,1 5,3 5,0 4,5 4,2 9 5 15 8 S 1023,7 48 0 0,0
16.02.2019 17:00:00 13,3 -1,4 10,6 6,2 4,4 4,2 10 5 20 11 SW 1023,5 70 50 0,0
16.02.2019 16:00:00 14,5 -0,9 12,7 6,7 4,1 4,2 14 7 25 13 SSW 1023,7 67 60 0,0
16.02.2019 15:00:00 14,8 -2,2 14,8 7,2 3,7 4,2 15 8 28 15 SW 1024,1 64 60 0,0
16.02.2019 14:00:00 14,7 -0,9 15,0 6,9 3,1 4,1 13 7 27 15 WSW 1024,6 61 60 0,0
16.02.2019 13:00:00 12,7 0,4 14,1 5,8 2,6 4,1 13 7 24 13 SSW 1024,8 43 60 0,0
16.02.2019 12:00:00 9,9 -0,9 11,2 3,7 2,2 4,1 19 10 26 14 S 1025,4 31 60 0,0
16.02.2019 11:00:00 8,1 -0,9 8,8 1,0 2,2 4,1 13 7 26 14 SSW 1025,9 33 60 0,0
16.02.2019 10:00:00 6,3 -1,6 6,3 0,7 2,2 4,1 17 9 24 13 SSW 1026,0 24 60 0,0
16.02.2019 09:00:00 3,4 -1,6 3,4 0,7 2,3 4,1 13 7 20 11 S 1026,6 31 60 0,0
16.02.2019 08:00:00 1,4 -2,0 -0,3 0,8 2,4 4,1 11 6 16 8 S 1026,6 19 1 0,0
16.02.2019 07:00:00 0,8 -2,2 -2,2 0,8 2,4 4,1 9 5 15 8 S 1026,8 17 0 0,0
16.02.2019 06:00:00 0,8 -2,3 -1,4 0,9 2,5 4,1 10 5 14 7 S 1027,1 16 0 0,0
16.02.2019 05:00:00 1,3 -2,1 -0,9 1,0 2,6 4,1 9 5 13 7 S 1027,7 18 0 0,0
16.02.2019 04:00:00 1,3 -2,2 -1,4 1,0 2,7 4,1 9 5 14 7 S 1028,1 17 0 0,0
16.02.2019 03:00:00 1,9 -2,0 -0,3 1,1 2,8 4,1 10 5 15 8 S 1028,6 18 0 0,0
16.02.2019 02:00:00 3,3 -2,0 0,3 1,2 2,9 4,1 11 6 16 8 S 1029,5 26 0 0,0
16.02.2019 01:00:00 3,8 -1,9 -0,5 1,3 3,1 4,1 9 5 11 6 S 1029,8 26 0 0,0
16.02.2019 00:00:00 2,2 -2,0 -2,1 1,4 3,3 4,1 7 4 12 6 SSW 1030,1 21 0 0,0
15.02.2019 23:00:00 3,8 -2,1 -0,4 1,5 3,5 4,1 7 4 14 8 S 1030,4 22 0 0,0
15.02.2019 22:00:00 3,2 -2,3 -1,2 1,5 3,7 4,1 6 4 12 6 S 1030,8 22 0 0,0
15.02.2019 21:00:00 2,1 -2,3 -2,2 1,9 4,1 4,1 6 4 10 6 SSW 1031,1 21 0 0,0
15.02.2019 20:00:00 4,4 -2,2 -1,9 2,7 4,3 4,1 8 5 11 6 S 1031,5 21 0 0,0
15.02.2019 19:00:00 6,9 -2,3 -0,5 3,6 4,6 4,1 7 4 10 5 S 1031,8 35 0 0,0
15.02.2019 18:00:00 8,5 -2,0 0,7 4,7 4,7 4,1 5 3 10 6 SSW 1031,9 31 0 0,0
15.02.2019 17:00:00 11,1 -1,7 8,7 6,0 4,6 4,0 8 4 12 7 SSW 1031,9 46 49 0,0
15.02.2019 16:00:00 12,9 -3,6 11,2 6,8 4,4 4,0 7 4 12 7 SW 1032,2 70 60 0,0
15.02.2019 15:00:00 12,7 -4,2 12,8 7,5 3,9 4,0 11 6 16 8 WSW 1032,7 65 60 0,0
15.02.2019 14:00:00 12,7 -3,2 13,9 7,2 3,3 4,0 4 2 11 6 WNW 1033,1 43 60 0,0
15.02.2019 13:00:00 11,1 -1,0 13,0 5,9 2,7 4,0 5 3 10 6 W 1033,6 24 60 0,0
15.02.2019 12:00:00 8,7 0,4 10,8 3,3 2,4 4,0 6 3 12 7 W 1034,1 18 60 0,0
15.02.2019 11:00:00 5,8 -0,4 7,0 0,9 2,4 4,0 8 4 15 8 WSW 1034,4 14 60 0,0
15.02.2019 10:00:00 3,8 -1,0 4,6 0,9 2,5 4,0 8 5 13 7 W 1034,5 14 60 0,0
15.02.2019 09:00:00 1,7 -2,0 1,6 0,9 2,6 4,0 8 4 13 7 WSW 1034,3 10 58 0,0
15.02.2019 08:00:00 0,5 -2,3 -1,2 0,9 2,6 4,0 10 6 14 7 W 1034,0 9 0 0,0
15.02.2019 07:00:00 1,0 -1,9 -2,5 1,0 2,7 4,0 4 2 16 8 W 1033,8 11 0 0,0
15.02.2019 06:00:00 1,2 -1,9 -2,1 1,0 2,8 3,9 9 5 11 6 WSW 1033,8 12 0 0,0
15.02.2019 05:00:00 1,8 -1,7 -1,5 1,1 3,0 3,9 9 5 13 7 WSW 1033,8 14 0 0,0
15.02.2019 04:00:00 2,3 -1,6 -0,4 1,2 3,1 3,9 11 6 23 12 W 1033,6 17 0 0,0
15.02.2019 03:00:00 2,4 -1,2 0,1 1,3 3,2 3,9 14 8 20 11 W 1033,8 18 0 0,0
15.02.2019 02:00:00 2,6 -0,9 -0,1 1,4 3,4 3,9 13 7 17 9 WSW 1034,2 16 0 0,0
15.02.2019 01:00:00 2,6 -0,1 -1,5 1,5 3,6 3,9 6 4 12 7 WSW 1034,2 15 0 0,0
15.02.2019 00:00:00 2,4 0,0 -1,3 1,6 3,8 3,9 6 3 13 7 WSW 1034,2 11 0 0,0
14.02.2019 23:00:00 3,6 0,6 -1,9 1,8 4,1 3,9 7 4 13 7 WSW 1033,8 12 0 0,0
14.02.2019 22:00:00 4,0 1,2 -1,3 2,0 4,4 3,9 9 5 13 7 WSW 1033,7 12 0 0,0
14.02.2019 21:00:00 3,8 1,9 -1,4 2,6 4,7 3,8 4 2 8 4 SW 1033,9 8 0 0,0
14.02.2019 20:00:00 3,3 1,5 -0,2 3,4 5,0 3,8 5 3 12 6 SSW 1034,2 6 0 0,0
14.02.2019 19:00:00 4,7 2,4 0,0 4,2 5,3 3,8 8 5 10 6 SSW 1034,4 7 0 0,0
14.02.2019 18:00:00 7,1 3,1 1,3 5,3 5,4 3,8 4 2 12 6 SSW 1034,1 12 0 0,0
14.02.2019 17:00:00 8,2 3,2 6,3 6,6 5,4 3,8 8 4 18 10 WSW 1034,0 12 40 0,0
14.02.2019 16:00:00 9,3 3,5 9,0 7,2 5,3 3,8 12 6 20 11 WSW 1034,2 14 60 0,0
14.02.2019 15:00:00 9,1 3,1 9,9 7,7 5,1 3,8 16 9 27 15 WSW 1034,2 18 60 0,0
14.02.2019 14:00:00 9,0 3,7 10,3 7,7 4,8 3,8 20 11 28 15 W 1034,6 11 57 0,0
14.02.2019 13:00:00 8,6 3,5 10,1 7,3 4,5 3,8 16 9 24 13 WSW 1035,0 16 55 0,0
14.02.2019 12:00:00 7,9 4,1 9,5 6,0 4,4 3,8 15 8 21 12 SW 1034,9 11 13 0,0
14.02.2019 11:00:00 6,6 4,0 6,6 5,3 4,3 3,8 16 9 24 13 WSW 1034,9 8 0 0,0
14.02.2019 10:00:00 6,1 4,2 5,8 5,0 4,3 3,8 15 8 23 12 W 1035,0 7 0 0,0
14.02.2019 09:00:00 6,1 4,3 5,7 4,9 4,3 3,8 10 6 16 9 W 1035,3 5 0 0,0
14.02.2019 08:00:00 6,1 4,4 5,6 4,9 4,4 3,7 10 5 22 12 WSW 1035,3 4,5 0 0,0
14.02.2019 07:00:00 6,2 4,6 5,4 5,0 4,4 3,7 14 7 24 13 W 1034,2 3,9 0 0,0
14.02.2019 06:00:00 6,6 5,2 6,2 5,2 4,3 3,7 13 7 23 12 W 1033,9 3,7 0 0,0
14.02.2019 05:00:00 6,8 5,7 6,4 5,3 4,3 3,7 16 9 23 13 W 1033,7 2,9 0 0,0
14.02.2019 04:00:00 6,7 5,8 6,4 5,3 4,3 3,7 16 8 25 14 W 1033,3 1,9 0 0,0
14.02.2019 03:00:00 6,7 5,9 6,4 5,2 4,2 3,7 15 8 22 12 W 1033,4 1,6 0 0,0
14.02.2019 02:00:00 6,7 5,9 6,4 5,2 4,2 3,7 16 9 26 14 W 1033,2 1,6 0 0,0
14.02.2019 01:00:00 6,8 5,9 6,4 5,2 4,1 3,7 14 8 24 13 W 1033,0 1,8 0 0,0
14.02.2019 00:00:00 6,8 5,8 6,4 5,2 4,1 3,7 13 7 24 13 W 1032,8 2,0 0 0,0
13.02.2019 23:00:00 6,8 5,8 6,4 5,2 4,0 3,7 16 9 29 16 W 1032,3 2,5 0 0,0
13.02.2019 22:00:00 7,1 5,7 6,7 5,1 4,0 3,7 17 9 27 15 W 1032,3 5 0 0,0
13.02.2019 21:00:00 7,2 5,5 6,9 5,0 3,9 3,7 19 10 30 16 W 1032,0 6 0 0,0
13.02.2019 20:00:00 7,3 5,4 7,0 4,9 3,9 3,7 18 10 32 18 W 1031,7 7 0 0,0
13.02.2019 19:00:00 7,2 5,2 6,6 4,7 3,9 3,7 18 10 28 15 WSW 1031,4 6 0 0,0
13.02.2019 18:00:00 7,5 4,9 6,8 5,0 3,8 3,7 15 8 35 19 WSW 1031,1 9 0 0,0
13.02.2019 17:00:00 8,0 4,9 7,3 5,5 3,7 3,7 20 11 29 15 W 1030,7 11 0 0,0
13.02.2019 16:00:00 8,2 5,3 7,9 5,7 3,5 3,7 14 8 31 17 W 1030,7 11 0 0,0
13.02.2019 15:00:00 8,1 5,5 8,1 5,4 3,3 3,7 21 11 31 17 W 1030,4 9 0 0,0
13.02.2019 14:00:00 7,5 5,3 7,5 5,1 3,1 3,7 19 10 27 15 W 1030,1 6 0 0,0
13.02.2019 13:00:00 7,2 5,2 7,1 4,7 2,9 3,7 19 10 30 16 W 1029,7 7 0 0,0
13.02.2019 12:00:00 6,8 4,9 6,5 4,4 2,7 3,7 26 14 40 21 W 1029,4 6 0 0,0
13.02.2019 11:00:00 6,2 4,5 5,9 4,0 2,6 3,7 26 14 38 21 W 1028,6 4,9 0 0,0
13.02.2019 10:00:00 5,5 4,2 5,2 3,4 2,4 3,7 22 12 36 19 W 1028,3 2,6 0 0,0
13.02.2019 09:00:00 5,0 3,5 4,7 3,0 2,3 3,7 22 12 39 21 W 1028,2 3,0 0 0,0
13.02.2019 08:00:00 4,9 3,0 4,5 2,7 2,2 3,7 24 13 39 21 W 1028,2 4,2 0 0,0
13.02.2019 07:00:00 4,5 2,5 4,0 2,4 2,1 3,7 23 12 38 20 WSW 1028,0 4,1 0 0,0
13.02.2019 06:00:00 4,3 2,2 3,7 2,1 2,0 3,7 23 12 37 20 WSW 1028,1 4,3 0 0,0
13.02.2019 05:00:00 4,1 1,9 3,5 1,8 1,9 3,7 23 12 38 20 WSW 1028,2 4,9 0 0,0
13.02.2019 04:00:00 3,7 1,6 3,0 1,2 1,9 3,7 22 12 37 20 WSW 1028,2 6 0 0,0
13.02.2019 03:00:00 3,4 1,3 2,6 0,8 1,9 3,7 24 13 37 20 WSW 1028,8 8 0 0,0
13.02.2019 02:00:00 2,8 0,9 1,9 0,8 2,0 3,7 13 7 23 12 SW 1029,6 15 0 0,3
13.02.2019 01:00:00 1,7 -0,3 1,0 0,8 2,0 3,7 12 6 20 11 WSW 1030,4 10 0 0,3
13.02.2019 00:00:00 2,0 -2,1 1,0 0,8 2,1 3,7 11 6 26 14 WSW 1030,4 17 0 0,0
12.02.2019 23:00:00 2,1 -3,7 1,2 0,9 2,2 3,7 14 8 21 11 WSW 1030,3 70 0 0,0
12.02.2019 22:00:00 1,7 -4,1 1,0 0,9 2,3 3,7 12 7 21 11 WSW 1030,5 70 0 0,0
12.02.2019 21:00:00 1,0 -4,7 -0,9 1,0 2,5 3,7 7 4 18 10 WSW 1030,2 70 0 0,0
12.02.2019 20:00:00 1,1 -4,2 -0,6 1,1 2,6 3,7 12 7 16 8 WSW 1030,2 70 0 0,0
12.02.2019 19:00:00 1,1 -4,4 -1,6 1,1 2,8 3,7 10 5 20 11 W 1030,0 70 0 0,0
12.02.2019 18:00:00 2,3 -3,9 0,2 1,6 3,0 3,7 12 7 16 9 W 1029,3 70 0 0,0
12.02.2019 17:00:00 3,3 -3,6 1,7 2,7 3,1 3,7 14 7 27 14 NW 1028,9 70 37 0,0
12.02.2019 16:00:00 4,6 -4,0 4,8 3,4 3,0 3,7 19 10 34 18 NW 1028,6 59 60 0,0
12.02.2019 15:00:00 5,0 -3,1 6,3 4,1 2,9 3,7 25 14 44 24 WNW 1027,9 31 55 0,0
12.02.2019 14:00:00 5,0 -3,1 5,9 4,3 2,6 3,7 29 15 44 24 NW 1027,5 31 59 0,0
12.02.2019 13:00:00 4,6 -3,4 6,1 3,9 2,3 3,7 31 17 45 24 WNW 1026,5 28 59 0,0
12.02.2019 12:00:00 4,4 -2,7 5,9 3,1 2,0 3,7 29 15 43 23 NW 1026,1 33 60 0,0
12.02.2019 11:00:00 4,0 -2,2 5,3 2,0 1,9 3,7 29 16 42 23 NW 1025,6 35 54 0,0
12.02.2019 10:00:00 3,0 -2,2 3,5 1,0 1,8 3,7 25 14 43 23 NW 1025,0 34 58 0,0
12.02.2019 09:00:00 2,4 -2,0 2,6 0,7 1,9 3,7 29 16 42 23 WNW 1024,1 54 33 0,0
12.02.2019 08:00:00 2,0 -2,4 1,3 0,7 1,9 3,6 29 15 42 23 NW 1022,9 66 0 0,0
12.02.2019 07:00:00 2,1 -2,3 1,5 0,7 2,0 3,6 27 15 46 25 NW 1022,4 66 0 0,0
12.02.2019 06:00:00 2,3 -2,3 1,8 0,7 2,0 3,6 24 13 49 26 NW 1021,8 61 0 0,0
12.02.2019 05:00:00 2,4 -2,5 1,9 0,7 2,1 3,6 34 18 47 25 NW 1020,9 63 0 0,0
12.02.2019 04:00:00 2,3 -2,5 1,7 0,7 2,1 3,6 31 17 42 23 WNW 1020,2 63 0 0,0
12.02.2019 03:00:00 2,3 -2,5 1,6 0,8 2,2 3,6 30 16 45 24 WNW 1019,9 57 0 0,0
12.02.2019 02:00:00 1,8 -2,8 1,0 0,8 2,3 3,6 27 14 40 22 WNW 1019,3 59 0 0,0
12.02.2019 01:00:00 1,8 -3,1 0,7 0,8 2,4 3,6 24 13 38 21 WNW 1019,0 57 0 0,0
12.02.2019 00:00:00 1,8 -2,9 0,5 0,7 2,5 3,6 23 13 34 18 WNW 1018,1 61 0 0,0
11.02.2019 23:00:00 2,1 -2,7 0,6 0,5 2,7 3,6 20 11 31 17 W 1017,5 70 0 0,0
11.02.2019 22:00:00 2,3 -3,0 0,9 0,8 2,9 3,5 22 12 36 19 WNW 1016,9 70 0 0,0
11.02.2019 21:00:00 2,8 -3,1 1,5 1,2 3,2 3,5 25 14 48 26 WNW 1016,3 70 0 0,0
11.02.2019 20:00:00 3,1 -3,3 1,8 1,6 3,4 3,5 35 19 48 26 WNW 1015,2 70 0 0,0
11.02.2019 19:00:00 3,2 -2,9 1,9 2,1 3,6 3,5 31 17 57 31 WNW 1013,9 70 0 0,0
11.02.2019 18:00:00 3,9 -2,9 3,0 3,0 3,7 3,5 43 23 61 33 WNW 1012,1 70 0 0,0
11.02.2019 17:00:00 4,3 -1,2 3,8 3,4 3,8 3,5 30 16 54 29 WNW 1010,4 70 0 0,0
11.02.2019 16:00:00 4,4 -1,2 4,0 3,8 3,8 3,5 37 20 65 35 NW 1009,1 70 0 0,0
11.02.2019 15:00:00 4,7 -1,1 4,5 4,5 3,8 3,5 41 22 69 37 WNW 1007,4 70 2 0,0

tt = Température de l'air
td = dewpoint
tt 5cm = Température de l'air 5cm
tt -5cm = Température de l'air -5cm
tt -20cm = Température de l'air -20cm
tt -100cm = Température de l'air -100cm
ff = Vitesse du vent
fx = gusts
dd = Direction du vent
ppp = reduced air pressure
vv = visibility
sd = Ensoleillement
rr = Quantités de précipitations

stations d'obs. à proximité